{"data":{"norad_id":48558,"epoch":"2026-05-25T02:57:37.192896Z","epoch_age_seconds":74552,"freshness":"FRESH","line1":"1 48558U 21041F   26145.12334714  .00000069  00000+0  13973-4 0  9992","line2":"2 48558  53.1604 131.3500 0001185  96.2509 263.8627 15.31701603276129","mean_motion":15.31701603,"eccentricity":0.0001185,"inclination_deg":53.1604,"raan_deg":131.35,"arg_perigee_deg":96.2509,"mean_anomaly_deg":263.8627,"bstar":1.3973e-5,"rev_number":27612,"period_min":94.013089571729,"perigee_km":469.92362541254,"apogee_km":471.54680812792,"semimajor_km":6848.8722167702,"source":"CELESTRAK","updated_at":"2026-05-25T13:38:16.725209Z"}}